Wind_Speed
24 24 24 24 24 23 23 21 21 20 20 19 19 18 18 17 16 14 14 14 14 14 14 13 12 11 11 10 10 10 10 9 9 10 11 13 13 14 16 18 19 19 21 22
25 25 25 25 25 24 24 23 23 22 22 21 20 19 19 19 18 17 16 16 16 16 15 14 13 12 11 11 10 10 11 10 11 11 11 12 13 14 15 17 18 19 21 22
26 26 26 27 27 26 25 25 25 24 23 22 22 21 21 21 20 20 20 19 18 19 17 15 14 14 13 12 11 11 11 11 12 12 12 12 13 14 15 17 18 18 20 20
28 28 29 28 27 27 26 26 26 26 25 24 24 23 22 21 21 21 21 20 20 20 18 17 15 14 14 13 13 12 12 12 13 13 13 14 14 15 16 17 18 19 19 20
31 31 30 29 28 28 28 27 27 27 26 25 25 24 23 23 23 22 22 21 21 20 19 18 18 17 15 15 14 14 13 14 14 14 15 14 15 15 16 17 18 18 19 20
34 33 33 31 30 29 28 28 27 27 26 25 25 25 25 25 25 25 24 23 22 22 21 21 20 19 18 17 16 15 15 15 15 15 14 15 15 16 17 18 19 20 21 22
34 34 33 31 31 30 29 27 26 26 26 26 26 26 26 26 25 25 24 24 23 23 22 22 21 21 20 19 18 17 17 17 16 16 16 16 17 18 19 20 20 21 22 23
33 33 32 30 30 28 28 27 26 26 26 26 25 25 25 25 24 24 24 24 24 24 23 22 21 21 20 19 20 19 18 18 17 17 18 18 19 19 20 21 21 22 23 24
31 30 29 29 29 27 26 26 26 26 26 26 26 25 25 25 24 24 24 24 24 23 23 22 22 22 22 21 20 20 20 19 19 19 19 20 21 21 22 23 23 24 24 25
28 28 26 26 25 25 25 25 25 26 25 25 24 24 24 24 24 23 23 23 23 22 21 21 21 21 21 22 21 21 20 20 20 21 21 22 23 23 23 23 24 25 26 26
27 26 25 24 24 24 24 24 25 25 25 24 23 23 23 23 23 22 22 22 22 22 22 21 21 20 20 20 20 21 21 21 22 22 23 24 24 24 25 26 26 26 27 27
25 25 25 23 23 23 23 24 24 24 25 24 22 22 22 22 21 21 21 20 20 20 20 20 21 21 20 20 21 22 22 22 22 22 23 24 25 25 26 26 26 27 28 29
23 23 23 22 21 22 22 22 22 22 21 20 19 19 20 20 20 20 19 19 19 20 19 20 20 19 19 20 21 21 21 21 21 22 23 24 25 26 26 27 28 29 30 31
22 22 22 21 20 19 19 19 19 19 18 18 19 19 18 18 18 18 18 18 18 19 19 19 19 19 19 19 19 20 20 21 22 22 22 22 23 24 25 26 27 28 29 31
22 21 20 19 18 17 16 16 16 16 17 17 17 16 16 16 16 16 17 17 17 17 17 17 18 18 18 18 18 18 18 19 19 20 21 22 23 25 26 27 28 29 29 31
21 20 19 18 17 17 15 14 14 14 14 14 14 14 14 14 14 15 15 15 15 16 16 17 16 16 16 16 16 17 18 18 20 20 21 23 24 24 26 27 29 30 31 32
19 19 18 17 17 17 15 13 13 12 12 11 12 13 13 13 14 14 15 15 15 15 15 15 15 15 15 15 17 17 18 20 21 21 21 22 23 24 26 28 29 30 32 33
18 17 16 16 16 16 15 13 12 11 11 12 12 12 12 11 11 11 11 11 11 12 13 14 14 14 15 16 17 18 18 18 20 21 22 23 24 26 27 28 30 31 32 33
17 16 15 15 14 14 13 12 11 11 11 11 10 10 10 9 9 9 9 9 9 10 10 11 12 13 14 16 17 17 18 19 21 22 23 24 26 27 28 29 30 32 33 34
15 14 14 14 14 13 12 11 11 11 11 11 10 9 8 8 8 8 8 8 9 9 11 12 13 13 15 16 17 17 18 20 21 23 24 25 26 28 29 30 31 32 33 34
14 14 14 14 14 13 12 11 10 10 10 10 9 8 7 7 7 8 9 9 10 10 11 12 13 14 16 17 17 19 20 21 23 24 26 27 28 29 30 31 32 33 33 34
14 14 14 14 13 12 11 10 10 9 9 8 7 7 7 7 8 8 9 9 9 10 11 13 14 16 17 18 20 21 23 24 25 26 27 28 29 30 31 32 32 32 32 32
14 14 14 14 13 12 12 11 10 9 9 8 7 7 7 8 8 9 9 10 11 12 14 15 17 18 19 21 22 24 25 25 26 27 28 29 30 31 31 31 31 31 31 31
15 14 14 14 13 12 12 11 10 9 9 8 8 8 9 9 10 10 11 12 13 15 16 17 19 20 21 23 24 25 26 27 28 29 30 30 31 31 31 31 31 30 30 30
14 13 13 12 12 11 10 10 10 10 9 9 9 9 9 10 11 12 13 14 16 17 18 20 21 23 24 25 26 27 28 29 29 30 30 30 30 30 30 30 29 29 29 29
14 13 13 12 11 11 10 10 9 9 9 9 9 10 11 12 13 15 16 17 19 20 21 23 24 25 26 27 28 28 29 29 30 30 29 29 29 29 28 28 28 27 27 27
14 13 12 12 12 11 10 9 9 9 10 10 11 12 13 14 16 17 19 20 21 22 24 25 26 26 27 28 28 28 28 28 28 28 28 28 27 27 26 26 25 25 25 25
Wind_Direction
229 231 235 240 244 247 251 256 261 266 270 270 271 271 273 277 277 279 283 285 288 288 295 296 295 294 298 291 290 285 277 265 256 247 242 238 237 238 238 238 239 242 244 245
235 237 239 242 246 251 255 258 262 267 269 269 269 270 273 274 275 277 281 281 283 286 287 291 290 287 292 292 288 283 271 264 261 255 250 246 244 244 243 241 242 244 247 247
239 241 243 246 250 255 259 261 263 266 269 269 269 269 270 273 275 275 276 278 281 284 282 282 283 283 286 288 285 283 276 266 264 262 257 252 250 248 245 243 246 249 250 250
243 244 245 248 253 256 260 262 264 266 268 268 269 268 270 272 274 273 274 276 278 279 276 276 279 281 282 280 280 278 275 269 266 264 259 255 254 251 247 247 249 251 253 255
243 246 250 251 255 258 261 264 267 268 268 268 268 268 268 270 272 272 273 273 275 275 274 274 278 277 276 276 274 272 271 269 267 265 263 258 255 251 248 248 251 252 255 258
243 247 251 255 257 259 262 265 267 267 267 268 265 265 266 268 271 272 273 271 271 271 271 272 273 273 273 272 269 270 267 269 267 267 264 259 258 251 251 252 252 254 257 259
245 247 251 255 258 260 262 265 265 265 265 265 264 264 265 268 270 270 270 269 269 270 269 269 270 269 268 267 266 265 265 265 265 266 264 261 259 256 256 256 257 260 262 263
246 249 250 253 257 259 260 261 263 265 265 265 264 264 265 267 268 268 269 268 269 268 267 267 267 266 264 266 264 263 263 264 265 264 262 262 262 261 261 260 262 264 264 266
244 248 251 253 256 257 258 260 263 263 264 264 264 264 265 266 267 266 265 265 266 267 266 264 266 266 264 261 262 262 263 263 262 262 261 260 260 261 263 265 265 267 268 271
243 246 250 252 253 254 256 258 260 260 261 264 265 265 265 266 266 265 263 264 263 263 264 267 266 263 261 257 258 260 261 261 261 260 259 259 260 263 266 267 269 270 273 273
241 243 246 249 252 254 256 257 259 259 260 262 263 263 263 264 264 263 261 262 261 260 260 263 262 260 259 257 257 259 260 262 262 260 260 260 261 266 266 266 269 272 274 275
240 242 247 251 254 255 257 257 258 259 261 263 260 259 261 261 260 259 257 257 258 259 259 260 260 258 257 258 261 260 261 263 263 262 262 263 264 267 266 267 269 271 275 276
238 241 246 250 252 253 254 255 256 258 262 263 259 258 258 257 257 256 255 254 256 257 260 263 262 257 259 262 262 261 261 262 261 261 262 266 267 268 269 270 272 274 277 279
236 241 245 245 246 248 250 251 252 255 257 256 256 255 256 256 255 254 255 255 254 255 259 261 261 262 263 265 264 263 263 264 264 265 267 268 269 271 273 275 279 281 281 282
237 240 240 239 241 241 244 246 249 252 253 252 251 250 253 254 253 254 253 252 252 255 257 259 261 263 265 264 263 263 263 264 267 267 267 269 272 275 277 279 282 284 285 286
233 235 236 237 237 237 241 244 244 246 247 245 243 244 246 249 251 253 253 254 255 254 258 261 261 261 263 263 262 263 264 267 271 271 272 274 276 279 281 282 285 286 287 289
230 232 234 235 235 235 236 238 240 239 237 238 240 242 245 248 250 254 255 255 255 255 256 256 256 258 262 263 264 265 267 269 272 274 278 280 281 283 285 287 288 289 291 293
224 225 227 229 228 229 229 229 230 230 230 233 236 239 241 242 244 247 249 249 252 255 255 254 255 257 262 266 268 270 271 275 277 278 280 283 286 288 290 291 293 294 295 296
221 221 223 222 220 219 220 222 223 225 226 228 229 230 233 235 238 242 245 247 251 257 254 256 261 267 269 271 272 273 277 283 285 285 285 288 290 292 293 294 295 296 298 299
213 215 215 212 209 209 210 215 221 223 223 223 224 228 230 234 240 242 243 247 255 263 264 265 267 270 274 277 279 284 287 289 291 291 292 293 295 296 296 297 297 299 300 301
205 204 202 199 197 198 202 208 214 216 219 220 224 229 233 237 242 247 253 257 263 267 271 274 277 280 283 286 287 289 292 294 295 296 296 297 298 298 299 300 301 302 303 303
198 197 196 195 194 196 200 205 205 204 209 214 221 227 232 239 248 256 260 264 270 277 281 284 286 287 289 292 294 295 296 297 297 298 298 299 301 302 302 303 304 304 304 304
192 192 193 195 195 195 196 198 200 203 210 219 227 235 243 251 260 265 269 274 279 283 287 289 291 292 294 295 296 297 298 299 299 300 301 302 303 303 304 304 305 305 305 305
185 186 189 190 192 196 200 203 208 215 222 230 239 247 253 261 267 271 275 280 285 288 290 292 293 294 296 297 298 300 301 301 301 302 303 304 305 305 306 306 306 306 306 307
181 181 183 186 191 196 202 212 218 225 233 242 250 257 263 269 273 279 284 288 291 292 293 294 296 297 298 299 300 301 301 301 302 303 305 305 305 306 307 308 308 308 308 308
184 188 189 193 199 207 215 222 227 230 235 245 255 264 270 276 282 287 290 292 293 295 296 298 299 300 300 301 302 303 303 304 305 305 306 306 307 308 308 308 309 309 309 310
187 191 194 198 204 210 217 225 234 242 250 258 266 273 279 284 287 290 292 294 296 298 299 300 301 301 302 303 305 306 306 307 307 308 308 308 309 309 309 309 310 310 310 311
Height
5801 5803 5806 5808 5811 5813 5815 5817 5818 5820 5821 5823 5823 5825 5826 5826 5827 5827 5827 5827 5827 5826 5825 5824 5823 5822 5821 5820 5819 5819 5819 5819 5819 5820 5820 5821 5822 5824 5825 5827 5829 5831 5832 5834
5795 5798 5801 5803 5805 5808 5810 5812 5813 5815 5816 5817 5818 5819 5820 5821 5822 5823 5823 5823 5823 5822 5822 5821 5820 5819 5818 5817 5817 5816 5816 5816 5817 5817 5818 5818 5820 5821 5822 5823 5825 5827 5828 5829
5790 5793 5796 5798 5800 5802 5804 5806 5808 5809 5811 5812 5813 5814 5815 5816 5817 5817 5818 5818 5818 5818 5817 5817 5816 5816 5815 5815 5814 5814 5814 5814 5814 5815 5815 5816 5817 5817 5818 5820 5821 5823 5824 5825
5784 5788 5790 5794 5795 5797 5799 5800 5802 5803 5805 5806 5807 5809 5809 5810 5811 5811 5812 5812 5812 5812 5812 5812 5812 5812 5811 5811 5811 5811 5811 5811 5811 5811 5812 5812 5813 5813 5814 5815 5817 5818 5819 5820
5778 5780 5783 5787 5789 5791 5792 5794 5796 5797 5798 5799 5801 5802 5803 5804 5805 5805 5806 5806 5807 5807 5807 5807 5807 5807 5807 5807 5807 5807 5807 5807 5807 5807 5807 5808 5809 5809 5810 5811 5812 5813 5814 5815
5771 5774 5777 5781 5783 5784 5787 5787 5789 5790 5791 5792 5794 5796 5797 5797 5798 5798 5799 5800 5800 5801 5801 5802 5802 5802 5802 5803 5803 5803 5803 5803 5803 5803 5803 5804 5805 5805 5806 5806 5807 5808 5809 5809
5764 5767 5770 5773 5775 5777 5780 5782 5782 5783 5784 5785 5787 5788 5790 5790 5791 5791 5792 5793 5793 5794 5795 5795 5796 5796 5796 5797 5798 5798 5798 5799 5799 5799 5799 5800 5800 5801 5801 5801 5802 5803 5803 5803
5757 5760 5765 5766 5768 5770 5772 5774 5775 5776 5777 5778 5780 5781 5782 5783 5783 5784 5785 5786 5786 5787 5788 5789 5789 5790 5790 5791 5791 5792 5793 5793 5794 5794 5794 5795 5795 5795 5796 5796 5797 5797 5797 5797
5751 5755 5757 5758 5761 5763 5764 5766 5768 5769 5770 5771 5772 5774 5775 5775 5776 5777 5778 5779 5780 5780 5781 5782 5783 5783 5785 5786 5786 5787 5787 5788 5789 5789 5789 5790 5790 5790 5790 5790 5791 5790 5790 5790
5743 5746 5749 5751 5753 5755 5757 5759 5760 5761 5763 5764 5765 5766 5767 5768 5769 5769 5770 5772 5773 5774 5774 5776 5776 5777 5778 5779 5780 5781 5781 5782 5782 5783 5783 5784 5784 5784 5784 5784 5784 5783 5783 5782
5737 5740 5743 5745 5746 5748 5750 5752 5753 5754 5756 5757 5758 5759 5760 5761 5762 5763 5763 5765 5766 5767 5768 5769 5770 5771 5772 5773 5774 5774 5775 5775 5776 5776 5777 5777 5777 5778 5778 5778 5777 5776 5775 5775
5731 5734 5737 5739 5740 5742 5743 5745 5746 5748 5749 5750 5751 5752 5753 5754 5755 5756 5757 5759 5760 5761 5762 5763 5764 5765 5766 5767 5768 5768 5769 5769 5769 5770 5770 5770 5771 5771 5770 5770 5770 5769 5768 5767
5725 5728 5730 5732 5734 5735 5737 5738 5739 5741 5743 5743 5744 5746 5747 5748 5749 5750 5752 5753 5754 5755 5757 5758 5758 5759 5760 5761 5762 5762 5762 5762 5763 5763 5763 5764 5763 5763 5763 5763 5762 5761 5761 5759
5719 5722 5724 5726 5728 5729 5731 5732 5734 5735 5737 5738 5739 5740 5741 5742 5744 5745 5746 5748 5749 5750 5751 5752 5753 5753 5754 5755 5755 5756 5756 5756 5757 5757 5757 5757 5757 5756 5756 5755 5754 5753 5751 5750
5713 5716 5718 5720 5722 5724 5726 5727 5729 5730 5732 5733 5734 5735 5737 5738 5739 5740 5742 5743 5744 5745 5746 5747 5748 5748 5749 5749 5750 5750 5751 5751 5751 5751 5751 5751 5750 5750 5749 5748 5746 5745 5743 5742
5708 5710 5713 5715 5718 5720 5721 5723 5724 5726 5727 5728 5730 5731 5733 5734 5735 5736 5737 5738 5739 5740 5741 5741 5742 5743 5743 5744 5744 5745 5746 5746 5745 5745 5745 5744 5743 5743 5742 5740 5739 5737 5735 5733
5703 5705 5708 5711 5713 5715 5717 5718 5720 5722 5723 5724 5726 5728 5729 5730 5731 5732 5733 5734 5735 5735 5736 5737 5738 5738 5739 5739 5740 5740 5740 5740 5740 5739 5738 5737 5737 5736 5734 5733 5731 5728 5726 5724
5699 5702 5704 5706 5709 5711 5713 5715 5717 5718 5720 5722 5723 5724 5726 5727 5728 5729 5730 5730 5731 5732 5732 5733 5734 5734 5735 5735 5735 5735 5735 5734 5734 5733 5732 5731 5730 5729 5727 5725 5723 5720 5717 5714
5695 5698 5700 5703 5705 5707 5709 5712 5714 5716 5717 5719 5720 5722 5722 5724 5725 5726 5727 5728 5728 5729 5730 5730 5730 5731 5731 5731 5731 5730 5729 5729 5728 5727 5726 5724 5723 5721 5719 5716 5714 5711 5708 5705
5692 5694 5697 5699 5702 5704 5707 5709 5711 5713 5715 5717 5718 5719 5720 5722 5723 5724 5725 5725 5726 5726 5727 5727 5727 5727 5727 5726 5726 5725 5724 5723 5722 5720 5719 5717 5715 5713 5711 5708 5705 5702 5699 5696
5689 5692 5694 5697 5700 5703 5705 5707 5710 5711 5713 5715 5716 5718 5719 5720 5721 5721 5722 5723 5723 5723 5723 5723 5723 5723 5722 5722 5721 5720 5719 5717 5716 5714 5712 5710 5708 5705 5702 5699 5696 5693 5690 5686
5687 5690 5693 5696 5699 5701 5704 5706 5708 5710 5712 5713 5715 5716 5717 5718 5719 5719 5720 5720 5720 5720 5720 5720 5719 5719 5718 5717 5716 5714 5713 5711 5709 5707 5705 5702 5700 5697 5694 5691 5688 5684 5681 5678
5686 5689 5692 5695 5697 5700 5702 5704 5706 5708 5710 5712 5714 5715 5716 5716 5717 5717 5717 5718 5717 5717 5717 5716 5715 5714 5713 5711 5710 5708 5706 5704 5702 5700 5697 5694 5692 5689 5686 5682 5679 5676 5673 5669
5685 5688 5691 5694 5696 5699 5701 5703 5705 5707 5709 5711 5712 5713 5713 5714 5714 5714 5714 5714 5714 5713 5712 5711 5710 5709 5707 5706 5703 5701 5699 5697 5694 5692 5689 5686 5683 5680 5677 5674 5671 5667 5664 5661
5685 5687 5690 5693 5695 5698 5700 5702 5704 5706 5708 5709 5710 5710 5711 5711 5711 5711 5711 5710 5709 5708 5707 5706 5704 5703 5701 5699 5696 5694 5692 5689 5686 5683 5680 5677 5675 5672 5668 5665 5662 5659 5656 5653
5684 5687 5690 5692 5695 5697 5699 5701 5702 5704 5705 5706 5707 5707 5708 5708 5708 5707 5706 5705 5704 5703 5701 5700 5698 5696 5694 5691 5689 5686 5683 5681 5678 5675 5672 5669 5667 5664 5661 5658 5655 5652 5649 5646
5684 5687 5689 5692 5694 5696 5697 5699 5700 5702 5703 5704 5704 5704 5704 5704 5703 5702 5701 5700 5698 5697 5695 5693 5691 5689 5686 5684 5681 5678 5675 5673 5670 5667 5665 5662 5659 5656 5653 5651 5648 5645 5642 5639